[Date Prev][Date Next][Thread Prev][Thread Next] - [Date Index][Thread Index][Author Index]
2 Line ISS Keps 12-2
- Subject: [sarex] 2 Line ISS Keps 12-2
- From: "Dave Larsen PhD" <doc@xxxxxxxxxxx>
- Date: Thu, 2 Dec 2004 02:11:52 -0800
ISS
1 25544U 98067A 04337.15122882 .00018058 00000-0 14592-3 0 2704
2 25544 51.6368 188.5128 0004223 71.7237 24.8080 15.70908710344700
----
Via the sarex mailing list at AMSAT.ORG courtesy of AMSAT-NA.
To unsubscribe, send "unsubscribe sarex" to Majordomo@amsat.org
AMSAT Home